Home   Weather   Ras al-Khaimah   Past weeks

Flag for United Arab Emirates Past Weather in Ras al-Khaimah, Ras al-Khaimah, United Arab Emirates — Yesterday and Last 2 Weeks

Now
93 °F

Clear.


Feels Like: 94 °F
Forecast: 86 / 112 °F
Wind: 2 mph from Northwest

Location: Ras Al Khaimah International Airport

Current Time: Jul 23, 2017 at 10:51:20 pm

Latest Report: Jul 23, 2017 at 10:00 pm


Visibility: 10 mi

Pressure: 29.45 "Hg

Humidity: 36%

Dew Point: 63 °F

Location of Ras al-KhaimahLocation

Past Weather in Ras al-Khaimah — Graph

°F

Ras al-Khaimah Temperature Yesterday

Maximum temperature yesterday: 115 °F (at 12:00 pm)
Minimum temperature yesterday: 84 °F (at 1:00 am)
Average temperature yesterday: 98 °F

High & Low Weather Summary for the Past Weeks

 TemperatureHumidityPressure
High115 °F (Jul 13, 12:00 pm)84% (Jul 19, 5:00 am)29.53 "Hg (Jul 19, 5:00 am)
Low81 °F (Jul 23, 5:00 am)4% (Jul 19, 1:00 pm)29.36 "Hg (Jul 12, 6:00 pm)
Average100 °F33%29.45 "Hg
* Reported Jul 8 9:00 pm — Jul 23 9:00 pm, Ras al-Khaimah. Weather by CustomWeather, © 2017

Note: Actual official high and low records may vary slightly from our data, if they occured in-between our weather recording intervals... More about our weather records

Advertising

Ras al-Khaimah Weather History for the Previous 24 Hours

Scroll right to see more
 ConditionsComfort  
Time TempWeatherWind HumidityBarometerVisibility
9:00 pm
Sun, Jul 23
95 °FClear.3 mph30%29.45 "Hg10 mi
8:00 pm99 °FClear.5 mph21%29.42 "Hg10 mi
7:00 pm104 °FSunny.6 mph14%29.42 "Hg10 mi
6:00 pm106 °FSunny.10 mph14%29.39 "Hg10 mi
5:00 pm108 °FSunny.13 mph16%29.39 "Hg10 mi
4:00 pm108 °FSunny.13 mph18%29.39 "Hg10 mi
3:00 pm108 °FPassing clouds.13 mph20%29.39 "HgN/A
2:00 pm109 °FSunny.15 mph23%N/A10 mi
1:00 pm109 °FSunny.14 mph23%29.42 "Hg10 mi
12:00 pm111 °FSunny.8 mph25%29.45 "Hg10 mi
11:00 am109 °FSunny.6 mph23%29.45 "Hg10 mi
10:00 am108 °FClear.7 mph20%29.47 "Hg5 mi
9:00 am108 °FSunny.2 mph18%29.45 "Hg10 mi
8:00 am97 °FClear.5 mph34%29.45 "Hg5 mi
7:00 am88 °FClear.6 mph43%29.45 "Hg4 mi
6:00 am81 °FHaze.2 mph58%29.45 "Hg3 mi
5:00 am81 °FClear.2 mph58%29.42 "Hg4 mi
4:00 am82 °FClear.5 mph58%29.42 "Hg10 mi
3:00 am84 °FClear.6 mph58%29.42 "Hg5 mi
2:00 am84 °FClear.3 mph58%29.45 "Hg10 mi
1:00 am86 °FClear.No wind55%29.45 "Hg10 mi
12:00 am86 °FClear.2 mph59%29.47 "Hg10 mi
11:00 pm
Sat, Jul 22
90 °FClear.2 mph49%29.47 "Hg10 mi
10:00 pm93 °FClear.2 mph47%29.47 "Hg10 mi
Weather by CustomWeather, © 2017

See weather overviewHow to use our weather pages